Vertical_Velocity
-1 -1 -2 -2 -1 -2 -0 -0 -1 -1 -2 -3 -2 -2 -4 -3 -3 -3 -3 -3 -3 -2 -4 -3 -3 -3 -3 -3 -2 -2 -4 -5 -4 -1 -0 -2 -0 -4 -2 2 0 -2 0
-1 -0 -1 -1 -1 -1 -2 -1 -1 -1 -2 -2 -1 -2 -3 -3 -3 -3 -4 -3 -3 -2 -3 -4 -4 -2 -3 -4 -2 -3 -1 -2 -2 -1 -2 -0 -1 -0 0 2 1 0 -0
0 0 -1 -1 -0 -2 -3 -1 -2 -0 -1 -0 -1 -2 -2 -3 -3 -2 -3 -4 -3 -4 -2 -3 -2 -3 -1 -2 -3 -1 -1 -2 -3 -4 -1 -1 -0 3 0 -0 -0 -1 -1
-1 -1 1 -1 -2 -2 -2 -4 -3 -2 -0 -2 -3 -2 -3 -2 -1 -2 -1 -3 -4 -2 -2 -2 -2 -1 -1 -2 -4 -2 -3 -2 -3 -3 -1 -2 -2 1 0 -1 -0 0 1
-1 0 -1 -1 -0 -2 -2 -1 -1 -4 -3 -1 -2 -3 -3 -2 -1 -2 -2 -1 -3 -2 -3 -3 -3 -4 -1 -3 -2 -2 -3 -5 -4 -2 -3 0 -0 -1 3 0 -1 -1 -1
-0 -1 -2 -1 -1 -1 -1 -1 -1 1 -1 -2 -1 -4 -4 -3 -2 -2 -2 -0 -0 -1 -1 -1 -1 -1 -1 -2 -2 -4 0 -1 -4 -3 -2 -2 -0 1 -1 2 0 0 1
-0 0 -0 -0 -1 -1 -2 -1 -2 -3 -1 -3 -3 -2 -1 -1 -1 -2 -3 -2 -1 -1 -1 1 0 -2 -1 -1 -1 -2 -2 -1 -1 -3 -2 -2 -3 -1 1 0 1 2 1
-1 0 0 -1 -0 0 -0 -0 -1 -2 -2 -1 -2 -2 -4 -4 -6 1 -1 -2 -3 -1 -2 -1 -2 -1 -1 -1 -0 -0 -3 -0 -1 -2 -3 -3 -4 -3 -1 0 1 -0 -1
-1 -1 -1 -1 -2 -1 -0 -0 1 1 -1 -3 -4 -3 4 1 -1 -9 -7 1 0 -2 -1 -3 -3 -2 -0 2 -1 -2 -1 -2 -1 1 -2 -2 -3 -4 -2 -2 -1 0 1
-1 -1 -1 -1 -1 -1 -1 -0 -1 -0 -1 -1 -2 -5 -6 -5 1 11 -8 -8 3 2 0 -0 -3 -4 -5 -3 1 2 -0 -0 -1 -3 1 -0 -2 -2 -3 -2 -2 -1 -1
-0 -3 -1 -2 0 0 -0 -1 -1 -1 -1 -1 -2 -2 -3 -3 -5 3 10 -6 -9 -4 2 4 2 -3 -3 -5 -2 -0 -0 -0 -0 1 -2 -2 -1 -0 -2 -3 -1 -0 -2
-1 -2 -2 -1 -2 -1 -3 -3 -1 0 -0 -2 -2 -1 -2 -1 -2 -1 5 1 5 -7 -7 -11 -0 6 2 2 -1 -1 -1 -1 -1 -0 -0 0 -2 -2 -2 -2 -3 -2 1
-1 -0 -2 -2 -2 -2 -1 0 -1 -2 -3 -1 -1 -1 -0 -2 -1 -2 -3 3 8 2 -0 -6 -11 -10 1 -1 0 -1 -2 -2 -1 -1 -0 -2 -1 1 -0 -2 -3 -2 -0
-1 -1 -2 -1 -0 0 0 -1 -2 -1 0 0 -0 -0 -1 -3 -2 -1 -1 -2 4 5 9 2 -0 -10 -5 -0 -0 0 -1 1 1 -0 -1 0 -1 -2 1 1 -0 -3 -2
-1 -3 -2 -1 -1 -1 -1 -0 -0 -1 -0 -1 -0 -1 -0 -2 -2 -2 -2 -4 -8 -2 15 -0 5 3 -7 -7 -4 0 4 1 1 -3 1 -0 0 0 -4 -0 1 1 1
-0 -1 -1 -2 -2 -1 -0 -1 -2 -3 -3 -4 -2 -3 -5 -2 -1 -2 -3 -4 -4 -9 -13 15 2 -0 6 -5 -7 -6 1 4 2 -0 -2 0 2 0 1 -1 -3 -2 0
-1 -2 -2 -1 -0 -2 -1 -2 -2 0 1 1 -3 1 0 -3 0 -3 -3 1 1 -7 -10 14 6 -2 5 3 -2 -11 -6 -0 6 2 -3 -1 2 1 -0 0 2 -0 -2
-0 -0 -0 -0 -0 -1 -1 -1 1 -3 -2 0 -2 -5 1 -7 1 -4 -5 -3 -6 -5 -14 -8 -0 12 -4 -4 5 -3 -7 -4 -3 5 4 3 -1 2 -0 0 0 0 0
-1 -1 1 0 1 0 -1 -6 -5 1 -2 -2 1 -0 -0 -3 -0 -1 -5 -1 -3 -5 -3 -11 2 6 1 0 -2 1 -4 -1 -5 -1 2 6 -0 -2 1 1 -0 -0 1
-1 0 -2 -2 -3 -1 -2 -1 -1 -2 -1 1 0 -2 -0 -2 -3 -0 -2 -1 -2 -4 -5 -7 -7 -2 -1 4 -6 4 -1 -2 -2 -5 -1 5 1 1 1 0 2 -0 -1
1 -2 -2 -2 -2 1 1 -0 -2 -2 0 1 0 -1 -0 -0 -1 -3 -5 6 -2 -3 -2 -4 -4 -7 -2 1 -4 -2 -6 6 1 -1 -4 -4 1 3 4 2 3 1 -2
-1 -0 -2 -2 3 1 -3 -3 -8 -5 0 -0 2 5 2 1 1 0 -3 -5 -2 -0 -1 -7 -4 -6 1 -8 -2 -8 -10 -5 -7 0 -5 -5 1 1 2 1 4 4 2
-0 -2 -1 -2 0 1 -1 -3 -3 -5 -1 2 -1 -1 0 3 2 -5 -6 -7 -9 -6 -11 -4 -5 1 -4 2 2 -0 -6 -4 1 7 -3 3 -13 3 0 1 1 3 3
1 1 2 -2 -4 1 3 -2 -5 -5 -5 -3 -4 -5 -9 -5 -2 -7 -7 0 4 7 10 3 5 10 12 17 11 13 12 17 11 12 3 4 4 -0 -1 3 4 3 3
-1 -2 -2 1 -2 2 -3 -3 -7 -4 -6 -5 -4 -3 -6 -6 1 -1 -6 -1 3 14 -0 4 -0 -2 -3 -1 0 -3 0 -4 -2 9 11 4 27 7 -7 5 8 3 3
-1 -3 -3 -4 -1 -8 1 -2 -5 -9 -8 -10 -2 -2 -1 -2 -1 2 -3 -3 -3 12 -3 3 3 -2 -2 -1 1 -1 -1 -2 -4 -4 4 -15 8 4 6 1 7 5 6
Height
5860 5859 5858 5856 5854 5852 5849 5847 5844 5841 5838 5834 5830 5826 5821 5816 5812 5808 5805 5801 5796 5791 5787 5783 5778 5773 5770 5766 5763 5757 5752 5747 5742 5739 5735 5730 5726 5716 5707 5711 5720 5726 5729
5856 5855 5853 5852 5850 5847 5845 5842 5840 5837 5833 5830 5826 5822 5817 5812 5808 5805 5801 5797 5793 5788 5783 5779 5774 5770 5766 5763 5759 5754 5749 5744 5740 5736 5731 5727 5722 5716 5713 5715 5719 5722 5724
5851 5850 5849 5847 5845 5842 5840 5837 5835 5832 5829 5825 5821 5817 5813 5808 5805 5801 5797 5793 5789 5785 5780 5775 5770 5767 5762 5759 5756 5751 5746 5741 5738 5734 5730 5725 5720 5717 5716 5716 5717 5719 5719
5847 5846 5844 5842 5840 5837 5835 5832 5829 5826 5824 5820 5816 5812 5808 5804 5800 5796 5792 5788 5784 5781 5776 5772 5767 5763 5760 5755 5752 5749 5744 5739 5735 5732 5729 5725 5721 5717 5715 5714 5714 5715 5715
5841 5840 5838 5836 5834 5832 5829 5827 5824 5821 5818 5814 5811 5807 5803 5799 5795 5792 5788 5784 5780 5776 5772 5767 5763 5760 5756 5752 5748 5744 5741 5737 5733 5730 5726 5724 5720 5717 5715 5714 5713 5713 5713
5835 5834 5832 5831 5828 5826 5824 5821 5818 5815 5812 5808 5805 5802 5799 5795 5791 5787 5783 5780 5775 5771 5768 5764 5760 5756 5753 5749 5745 5741 5738 5735 5731 5727 5724 5722 5719 5717 5714 5713 5712 5711 5711
5829 5828 5826 5824 5822 5820 5817 5814 5811 5808 5805 5802 5798 5795 5792 5788 5785 5781 5778 5774 5771 5767 5763 5759 5756 5753 5749 5746 5742 5738 5736 5733 5729 5726 5723 5720 5718 5716 5713 5712 5710 5710 5709
5821 5820 5820 5818 5816 5813 5810 5807 5804 5801 5798 5795 5792 5788 5785 5781 5777 5775 5772 5768 5765 5762 5758 5755 5751 5748 5745 5742 5739 5735 5732 5730 5727 5724 5721 5718 5716 5714 5712 5710 5709 5708 5708
5814 5813 5812 5810 5808 5805 5802 5799 5796 5793 5790 5786 5783 5780 5777 5773 5769 5766 5764 5761 5759 5756 5753 5750 5746 5743 5740 5737 5734 5731 5729 5725 5723 5721 5719 5716 5714 5712 5710 5708 5707 5706 5706
5807 5805 5804 5801 5799 5796 5794 5791 5788 5785 5781 5777 5774 5770 5767 5764 5761 5759 5755 5753 5751 5749 5747 5744 5741 5738 5736 5732 5728 5725 5723 5721 5718 5716 5714 5713 5711 5710 5708 5706 5704 5704 5703
5798 5797 5794 5792 5790 5788 5785 5782 5779 5776 5772 5768 5765 5761 5756 5753 5750 5749 5748 5745 5743 5741 5739 5736 5734 5731 5729 5726 5723 5720 5717 5714 5713 5711 5709 5707 5706 5705 5704 5703 5701 5700 5700
5789 5787 5785 5783 5781 5778 5776 5773 5769 5766 5762 5758 5755 5751 5747 5744 5741 5740 5739 5736 5734 5730 5728 5726 5724 5722 5720 5718 5715 5713 5710 5708 5705 5703 5703 5702 5700 5698 5698 5698 5697 5696 5695
5779 5777 5775 5773 5770 5768 5765 5762 5758 5755 5751 5747 5743 5740 5737 5735 5732 5730 5729 5727 5725 5721 5718 5715 5713 5712 5710 5709 5707 5705 5703 5700 5698 5696 5694 5693 5692 5691 5690 5689 5689 5690 5690
5769 5767 5764 5762 5759 5756 5752 5749 5745 5742 5738 5734 5731 5728 5726 5723 5721 5718 5716 5714 5713 5711 5706 5703 5700 5698 5698 5697 5696 5694 5693 5691 5689 5686 5685 5684 5682 5682 5682 5681 5681 5680 5681
5758 5756 5753 5749 5746 5743 5739 5735 5732 5728 5725 5722 5719 5716 5713 5710 5707 5705 5702 5700 5698 5698 5696 5689 5689 5685 5684 5684 5683 5682 5680 5679 5677 5675 5674 5674 5673 5671 5670 5671 5671 5671 5671
5746 5743 5739 5736 5733 5729 5725 5721 5717 5714 5711 5708 5705 5702 5698 5695 5692 5690 5687 5685 5682 5681 5682 5678 5673 5671 5668 5666 5667 5667 5666 5665 5664 5663 5662 5661 5660 5660 5659 5659 5659 5660 5660
5733 5729 5725 5721 5717 5713 5709 5706 5702 5699 5695 5691 5688 5685 5681 5678 5674 5671 5668 5665 5663 5661 5662 5662 5657 5653 5652 5648 5647 5648 5649 5649 5648 5647 5647 5647 5646 5646 5645 5646 5646 5647 5648
5719 5714 5709 5705 5701 5697 5693 5690 5686 5682 5679 5675 5670 5667 5662 5658 5655 5651 5648 5646 5643 5640 5640 5641 5638 5633 5630 5629 5626 5625 5628 5630 5630 5630 5629 5630 5631 5631 5631 5631 5631 5633 5635
5703 5699 5693 5689 5685 5680 5675 5671 5667 5663 5658 5654 5650 5645 5640 5635 5632 5627 5623 5621 5618 5616 5613 5614 5615 5613 5609 5607 5607 5602 5604 5606 5609 5610 5610 5611 5612 5613 5614 5614 5615 5617 5619
5686 5681 5676 5672 5667 5661 5655 5650 5646 5641 5636 5632 5626 5621 5616 5610 5606 5601 5598 5594 5591 5588 5586 5585 5587 5587 5585 5581 5582 5582 5579 5582 5584 5587 5589 5590 5592 5593 5595 5596 5599 5600 5603
5668 5664 5659 5653 5647 5641 5635 5630 5625 5620 5615 5609 5603 5597 5591 5585 5580 5574 5571 5567 5562 5560 5557 5555 5556 5555 5556 5555 5554 5554 5556 5555 5558 5560 5563 5566 5570 5572 5575 5576 5580 5582 5585
5651 5645 5639 5633 5627 5619 5611 5605 5598 5595 5590 5585 5579 5572 5565 5559 5551 5544 5538 5534 5531 5526 5523 5520 5522 5522 5523 5522 5522 5524 5525 5529 5535 5533 5536 5541 5545 5548 5551 5555 5560 5562 5566
5631 5625 5618 5611 5604 5596 5588 5581 5574 5568 5563 5556 5548 5540 5532 5525 5515 5508 5502 5497 5491 5486 5482 5480 5481 5481 5483 5481 5481 5486 5488 5494 5500 5503 5505 5514 5517 5522 5526 5532 5537 5543 5546
5611 5603 5597 5589 5582 5573 5563 5553 5544 5538 5532 5524 5513 5502 5492 5485 5477 5466 5461 5458 5454 5448 5443 5440 5442 5445 5445 5445 5444 5446 5450 5455 5462 5468 5471 5485 5484 5492 5499 5507 5512 5519 5526
5590 5582 5574 5566 5557 5549 5536 5525 5512 5503 5495 5486 5475 5465 5455 5447 5441 5435 5428 5426 5424 5421 5414 5414 5413 5416 5419 5421 5422 5424 5429 5431 5435 5441 5442 5449 5457 5461 5471 5480 5488 5494 5502
5568 5559 5552 5541 5530 5519 5505 5490 5475 5464 5459 5453 5448 5437 5430 5421 5416 5411 5404 5401 5401 5399 5392 5394 5393 5393 5395 5398 5402 5403 5408 5411 5417 5423 5429 5432 5435 5438 5447 5455 5463 5471 5478